This is the latest recevied weather packets stored in our database for station/object K8MUD. If no packets are shown the sender has not sent any weather packets the latest 10 day(s).
| Time | Temp. | Humidity | Pressure | Rain* | Wind** | Luminosity | Snow |
|---|---|---|---|---|---|---|---|
| 1777998968 | 12.22° C | 75% | 1006.8 hPa | 0 mm | - | - | - |
| 1777998667 | 12.22° C | 73% | 1006.6 hPa | 0 mm | - | - | - |
| 1777998367 | 12.78° C | 72% | 1006.6 hPa | 0 mm | - | - | - |
| 1777998067 | 12.78° C | 71% | 1006.2 hPa | 0 mm | - | - | - |
| 1777997767 | 12.78° C | 72% | 1006 hPa | 0 mm | - | - | - |
| 1777997467 | 12.78° C | 72% | 1005.8 hPa | 0 mm | - | - | - |
| 1777997167 | 12.78° C | 72% | 1005.6 hPa | 0 mm | - | - | - |
| 1777996867 | 12.78° C | 71% | 1005.8 hPa | 0 mm | - | - | - |
| 1777996537 | 12.78° C | 70% | 1005.8 hPa | 0 mm | - | - | - |
| 1777996237 | 12.78° C | 71% | 1005.6 hPa | 0 mm | - | - | - |
| 1777995937 | 12.78° C | 71% | 1005.5 hPa | 0 mm | - | - | - |
| 1777995637 | 13.33° C | 71% | 1005.6 hPa | 0 mm | - | - | - |
| 1777995337 | 13.33° C | 71% | 1005.7 hPa | 0 mm | - | - | - |
| 1777995037 | 13.89° C | 70% | 1005.6 hPa | 0 mm | - | - | - |
| 1777994737 | 14.44° C | 69% | 1005.3 hPa | 0 mm | - | - | - |
| 1777994437 | 15° C | 67% | 1005.1 hPa | 0 mm | - | - | - |
| 1777994136 | 15.56° C | 66% | 1005.2 hPa | 0 mm | - | - | - |
| 1777993836 | 15.56° C | 68% | 1005.2 hPa | 0 mm | - | - | - |
| 1777993536 | 15.56° C | 68% | 1005.1 hPa | 0 mm | - | - | - |
| 1777993236 | 15.56° C | 68% | 1005.1 hPa | 0 mm | - | - | - |
| 1777992936 | 15.56° C | 68% | 1005.2 hPa | 0 mm | - | - | - |
| 1777992636 | 15° C | 69% | 1005.3 hPa | 0 mm | - | - | - |
| 1777992336 | 14.44° C | 69% | 1005.2 hPa | 0 mm | - | - | - |
| 1777992036 | 14.44° C | 70% | 1005.2 hPa | 0 mm | - | - | - |
| 1777991736 | 13.89° C | 69% | 1005 hPa | 0 mm | - | - | - |
* Rain latest hour (hover to see other rain measurements)
** Current wind speed in m/s (hover to see current wind gust speed)